CCA1025 ZPPP-VTSP

Flight info

Callsign CCA1025
Flight time N/A
Altitude 40100
Route ELASU A581 SAGAG B218 LPB B346 BKK Y8 SAVSA
Aircraft B738/L-VGDW/C

Departure

Time 2026-04-27 03:21
Airport Kunming Changshui International Airport (ZPPP)

Arrival

Time N/A
Airport Phuket International Airport (VTSP)
Time Latitude Longitude Altitude Speed Heading
2026-04-27 03:02 25.10546 102.92852 6915 ft 0 kts 63°
2026-04-27 03:04 25.10543 102.92844 6915 ft 2 kts 63°
2026-04-27 03:05 25.10538 102.92834 6915 ft 2 kts 63°
2026-04-27 03:05 25.10531 102.92819 6915 ft 2 kts 63°
2026-04-27 03:05 25.10525 102.92806 6915 ft 0 kts 63°
2026-04-27 03:05 25.10519 102.92796 6915 ft 2 kts 38°
2026-04-27 03:06 25.10506 102.92790 6915 ft 2 kts
2026-04-27 03:06 25.10495 102.92791 6915 ft 0 kts 337°
2026-04-27 03:06 25.10489 102.92795 6915 ft 0 kts 333°
2026-04-27 03:14 25.10500 102.92789 6915 ft 6 kts 333°
2026-04-27 03:14 25.10564 102.92754 6915 ft 10 kts 334°
2026-04-27 03:14 25.10619 102.92725 6915 ft 7 kts 334°
2026-04-27 03:14 25.10658 102.92704 6915 ft 5 kts 334°
2026-04-27 03:15 25.10684 102.92689 6915 ft 3 kts 331°
2026-04-27 03:15 25.10728 102.92648 6915 ft 13 kts 310°
2026-04-27 03:15 25.10780 102.92587 6915 ft 16 kts 315°
2026-04-27 03:15 25.10849 102.92611 6915 ft 9 kts 41°
2026-04-27 03:16 25.10895 102.92654 6915 ft 7 kts 39°
2026-04-27 03:16 25.10943 102.92693 6915 ft 11 kts 36°
2026-04-27 03:16 25.11029 102.92763 6915 ft 18 kts 38°
2026-04-27 03:16 25.11148 102.92870 6915 ft 24 kts 39°
2026-04-27 03:17 25.11292 102.92995 6915 ft 29 kts 38°
2026-04-27 03:17 25.11459 102.93140 6915 ft 29 kts 38°
2026-04-27 03:17 25.11606 102.93268 6914 ft 25 kts 38°
2026-04-27 03:17 25.11734 102.93379 6914 ft 21 kts 39°
2026-04-27 03:18 25.11865 102.93497 6914 ft 26 kts 38°
2026-04-27 03:18 25.12029 102.93638 6914 ft 33 kts 37°
2026-04-27 03:18 25.12227 102.93808 6914 ft 39 kts 38°
2026-04-27 03:18 25.12447 102.93998 6914 ft 38 kts 39°
2026-04-27 03:19 25.12569 102.94108 6914 ft 16 kts 39°
2026-04-27 03:19 25.12650 102.94178 6914 ft 13 kts 38°
2026-04-27 03:19 25.12719 102.94222 6914 ft 10 kts
2026-04-27 03:19 25.12769 102.94187 6914 ft 7 kts 309°
2026-04-27 03:20 25.12804 102.94140 6914 ft 5 kts 309°
2026-04-27 03:20 25.12831 102.94103 6914 ft 13 kts 308°
2026-04-27 03:20 25.12873 102.94015 6914 ft 11 kts 259°
2026-04-27 03:20 25.12823 102.93961 6914 ft 11 kts 216°
2026-04-27 03:21 25.12538 102.93714 6914 ft 97 kts 218°
2026-04-27 03:21 25.11812 102.93081 6915 ft 167 kts 218°
2026-04-27 03:21 25.10762 102.92184 7164 ft 205 kts 217°
2026-04-27 03:21 25.09532 102.91180 7705 ft 237 kts 219°
2026-04-27 03:22 25.08292 102.89747 7975 ft 283 kts 234°
2026-04-27 03:22 25.07277 102.87849 8978 ft 296 kts 241°
2026-04-27 03:22 25.06184 102.85866 9982 ft 305 kts 234°
2026-04-27 03:22 25.04882 102.84081 11147 ft 305 kts 234°
2026-04-27 03:23 25.04089 102.82837 12165 ft 295 kts 237°